EW8748 Weather Reports


Display with metric or nautical units.
time (UTC)temp
F
wind
direction
speed
MPH
gust
MPH
rain 1hr
in
rain 24hr
in
rain mn
in
humidity
%
barometer
mb
20200601054014 62 30 1.0 3.0 0.00 0.00 0.00 58 1016.3
20200601053511 61 32 0.0 2.0 0.00 0.00 0.00 60 1016.3
20200601052511 60 11 2.0 3.0 0.00 0.00 0.00 64 1016.2
20200601052014 60 13 1.0 2.0 0.00 0.00 0.00 68 1016.2
20200601051511 60 358 0.0 2.0 0.00 0.00 0.00 69 1016.1
20200601050511 58 275 0.0 0.0 0.00 0.00 0.00 74 1016.1
20200601050010 58 275 0.0 0.0 0.00 0.00 0.00 74 1016.1
20200601045510 58 275 0.0 0.0 0.00 0.00 0.00 74 1016.0
20200601044511 58 275 0.0 0.0 0.00 0.00 0.00 73 1016.1
20200601044013 58 275 0.0 2.0 0.00 0.00 0.00 72 1016.0
20200601043510 59 346 0.0 0.0 0.00 0.00 0.00 72 1016.0
20200601043014 58 92 0.0 2.0 0.00 0.00 0.00 73 1015.9
20200601041510 57 94 0.0 0.0 0.00 0.00 0.00 76 1015.9
20200601041014 57 97 0.0 2.0 0.00 0.00 0.00 77 1016.0
20200601040511 57 109 0.0 2.0 0.00 0.00 0.00 77 1015.9
20200601040012 57 46 0.0 2.0 0.00 0.00 0.00 78 1015.8
20200601035511 57 39 0.0 1.0 0.00 0.00 0.00 79 1015.8
20200601035014 56 19 0.0 0.0 0.00 0.00 0.00 79 1015.8
20200601034014 56 19 0.0 0.0 0.00 0.00 0.00 80 1015.9
20200601033510 56 19 0.0 2.0 0.00 0.00 0.00 80 1015.8
20200601033014 55 14 0.0 1.0 0.00 0.00 0.00 79 1015.8
20200601032014 55 0 0.0 0.0 0.00 0.00 0.00 77 1015.7
20200601031511 56 350 0.0 0.0 0.00 0.00 0.00 77 1015.6
20200601030011 56 0 0.0 0.0 0.00 0.00 0.00 76 1015.6
20200601025510 56 350 0.0 0.0 0.00 0.00 0.00 77 1015.5
20200601025013 56 350 0.0 0.0 0.00 0.00 0.00 76 1015.6
20200601024013 57 351 0.0 0.0 0.00 0.00 0.00 76 1015.6
20200601023013 57 351 0.0 0.0 0.00 0.00 0.00 75 1015.8
20200601022510 57 93 0.0 0.0 0.00 0.00 0.00 75 1015.8
20200601022013 57 93 0.0 0.0 0.00 0.00 0.00 75 1015.8
20200601021510 57 93 0.0 0.0 0.00 0.00 0.00 75 1015.8
20200601021013 57 76 0.0 0.0 0.00 0.00 0.00 75 1015.9
20200601020511 57 76 0.0 0.0 0.00 0.00 0.00 75 1015.9
20200601020011 58 82 0.0 0.0 0.00 0.00 0.00 75 1015.8
20200601015511 58 89 0.0 1.0 0.00 0.00 0.00 74 1015.9
20200601015013 58 96 0.0 1.0 0.00 0.00 0.00 73 1015.9
20200601014511 58 107 0.0 2.0 0.00 0.00 0.00 73 1015.9
20200601013510 58 69 1.0 3.0 0.00 0.00 0.00 72 1016.0
20200601012511 58 66 1.0 3.0 0.00 0.00 0.00 72 1015.9
20200601012013 58 48 2.0 3.0 0.00 0.00 0.00 71 1015.9
20200601010510 59 50 2.0 3.0 0.00 0.00 0.00 71 1016.0
20200601010011 59 32 1.0 3.0 0.00 0.00 0.00 71 1016.0
20200601005013 59 53 1.0 3.0 0.00 0.00 0.00 72 1016.0
20200601004511 59 49 1.0 3.0 0.00 0.00 0.00 72 1016.0
20200601004013 59 49 2.0 5.0 0.00 0.00 0.00 72 1016.0
20200601003511 59 48 2.0 3.0 0.00 0.00 0.00 72 1016.1
20200601003013 59 40 1.0 7.0 0.00 0.00 0.00 72 1016.2
20200601002013 59 54 2.0 3.0 0.00 0.00 0.00 72 1016.1
20200601001511 59 53 0.0 3.0 0.00 0.00 0.00 72 1016.1
20200601000511 59 57 2.0 5.0 0.00 0.00 0.00 73 1016.1
20200531235511 59 58 1.0 3.0 0.00 0.00 0.00 75 1016.2
20200531235014 59 61 0.0 5.0 0.00 0.00 0.00 75 1016.2
20200531234511 59 44 2.0 5.0 0.00 0.00 0.00 76 1016.2
20200531234014 59 72 0.0 2.0 0.00 0.00 0.00 77 1016.2
20200531233510 59 53 1.0 5.0 0.00 0.00 0.00 77 1016.3
20200531232511 59 65 1.0 3.0 0.00 0.00 0.00 79 1016.2
20200531232014 59 75 2.0 3.0 0.00 0.00 0.00 80 1016.2
20200531231014 59 98 1.0 3.0 0.00 0.00 0.00 82 1016.3
20200531230511 59 67 1.0 7.0 0.00 0.00 0.00 82 1016.3
20200531225024 59 67 3.0 6.0 0.00 0.00 0.00 83 1016.4
20200531224521 59 60 1.0 5.0 0.00 0.00 0.00 82 1016.5
20200531224024 59 57 1.0 5.0 0.00 0.00 0.00 82 1016.5
20200531223521 59 52 2.0 5.0 0.00 0.00 0.00 82 1016.5
20200531223024 59 54 2.0 3.0 0.00 0.00 0.00 83 1016.5
20200531222521 59 50 2.0 8.0 0.00 0.00 0.00 83 1016.6
20200531222024 59 28 5.0 9.0 0.00 0.00 0.00 83 1016.6
20200531221521 60 59 2.0 7.0 0.00 0.00 0.00 83 1016.7
20200531221032 60 33 3.0 7.0 0.00 0.00 0.00 82 1016.7
20200531220521 60 22 2.0 5.0 0.00 0.00 0.00 82 1016.7
20200531220022 60 49 2.0 8.0 0.00 0.00 0.00 81 1016.7
20200531215521 60 44 2.0 8.0 0.00 0.00 0.00 80 1016.7
20200531215024 60 59 3.0 7.0 0.00 0.00 0.00 80 1016.6
20200531214521 60 75 3.0 8.0 0.00 0.00 0.00 80 1016.6
20200531214025 60 69 2.0 6.0 0.00 0.00 0.00 81 1016.5
20200531213521 60 68 2.0 6.0 0.00 0.00 0.00 81 1016.5
20200531213024 60 51 3.0 9.0 0.00 0.00 0.00 80 1016.5
20200531212521 60 58 2.0 7.0 0.00 0.00 0.00 80 1016.5
20200531211521 60 52 1.0 6.0 0.00 0.00 0.00 80 1016.5
20200531211024 60 71 2.0 7.0 0.00 0.00 0.00 81 1016.5
20200531205024 60 52 2.0 7.0 0.00 0.00 0.00 81 1016.5
20200531204520 60 54 2.0 7.0 0.00 0.00 0.00 81 1016.4
20200531204024 60 28 2.0 8.0 0.00 0.00 0.00 81 1016.4
20200531203521 60 57 3.0 6.0 0.00 0.00 0.00 81 1016.3
20200531202522 60 55 3.0 5.0 0.00 0.00 0.00 81 1016.3
20200531201521 60 81 2.0 8.0 0.00 0.00 0.00 81 1016.2
20200531201024 60 64 2.0 6.0 0.00 0.00 0.00 81 1016.2
20200531200520 60 49 2.0 5.0 0.00 0.00 0.00 81 1016.2
20200531200020 60 51 3.0 7.0 0.00 0.00 0.00 81 1016.2
20200531195521 60 46 2.0 7.0 0.00 0.00 0.00 81 1016.1
20200531195024 61 51 3.0 7.0 0.00 0.00 0.00 81 1016.0
20200531194521 61 63 4.0 7.0 0.00 0.00 0.00 80 1015.9
20200531193521 61 58 2.0 5.0 0.00 0.00 0.00 80 1015.8
20200531193024 61 41 3.0 8.0 0.00 0.00 0.00 79 1015.7
20200531192024 61 57 1.0 3.0 0.00 0.00 0.00 77 1015.5
20200531191520 61 41 2.0 5.0 0.00 0.00 0.00 78 1015.5
20200531190521 62 61 2.0 5.0 0.00 0.00 0.00 78 1015.4
20200531185521 62 51 2.0 6.0 0.00 0.00 0.00 78 1015.4
20200531184521 62 68 2.0 8.0 0.00 0.00 0.00 79 1015.2
20200531184024 62 67 2.0 8.0 0.00 0.00 0.00 79 1015.2
20200531183521 62 59 5.0 12.0 0.00 0.00 0.00 79 1015.2
20200531183024 62 53 5.0 12.0 0.00 0.00 0.00 79 1015.2
20200531182521 62 20 3.0 12.0 0.00 0.00 0.00 79 1015.2
20200531182024 62 77 4.0 8.0 0.00 0.00 0.00 78 1015.2
20200531181521 62 66 3.0 8.0 0.00 0.00 0.00 78 1015.1
20200531180521 62 69 3.0 9.0 0.00 0.00 0.00 78 1015.0
20200531180021 62 57 3.0 9.0 0.00 0.00 0.00 78 1015.0
20200531175522 63 27 5.0 10.0 0.00 0.00 0.00 78 1015.0
20200531175024 63 10 3.0 12.0 0.00 0.00 0.00 78 1014.8
20200531174520 63 38 5.0 12.0 0.00 0.00 0.00 78 1014.8
20200531174024 63 49 3.0 10.0 0.00 0.00 0.00 78 1014.9
20200531173520 63 60 5.0 9.0 0.00 0.00 0.00 78 1014.9
20200531173023 63 94 5.0 9.0 0.00 0.00 0.00 77 1015.0
20200531172520 63 41 7.0 12.0 0.00 0.00 0.00 76 1015.0
20200531172024 64 26 5.0 12.0 0.00 0.00 0.00 74 1014.9
20200531171520 64 56 5.0 12.0 0.00 0.00 0.00 74 1014.9
20200531171024 64 63 4.0 9.0 0.00 0.00 0.00 74 1014.8
20200531170520 64 76 5.0 12.0 0.00 0.00 0.00 74 1014.7
20200531170020 64 30 7.0 10.0 0.00 0.00 0.00 74 1014.8
20200531165521 64 100 5.0 8.0 0.00 0.00 0.00 74 1014.6
20200531164521 65 89 3.0 9.0 0.00 0.00 0.00 74 1014.5
20200531163521 65 61 5.0 12.0 0.00 0.00 0.00 74 1014.4
20200531163023 66 76 5.0 9.0 0.00 0.00 0.00 73 1014.6
20200531162520 66 90 3.0 8.0 0.00 0.00 0.00 72 1014.4
20200531162024 67 87 6.0 10.0 0.00 0.00 0.00 70 1014.5
20200531161023 67 42 4.0 8.0 0.00 0.00 0.00 66 1014.4
20200531160021 68 157 1.0 3.0 0.00 0.00 0.00 65 1014.5
20200531155520 67 75 1.0 7.0 0.00 0.00 0.00 66 1014.4
20200531154520 68 92 2.0 5.0 0.00 0.00 0.00 66 1014.4
20200531154023 68 90 3.0 7.0 0.00 0.00 0.00 66 1014.4
20200531153520 68 34 2.0 9.0 0.00 0.00 0.00 66 1014.5
20200531153024 68 46 3.0 9.0 0.00 0.00 0.00 66 1014.5
20200531152521 67 74 2.0 7.0 0.00 0.00 0.00 66 1014.5
20200531152023 67 80 3.0 6.0 0.00 0.00 0.00 66 1014.6
20200531151521 67 80 1.0 5.0 0.00 0.00 0.00 65 1014.6
20200531151023 68 92 2.0 5.0 0.00 0.00 0.00 65 1014.6
20200531150521 68 40 2.0 8.0 0.00 0.00 0.00 66 1014.6
20200531145024 69 42 5.0 12.0 0.00 0.00 0.00 63 1014.7
20200531144520 69 73 2.0 7.0 0.00 0.00 0.00 61 1014.8
20200531144024 69 90 2.0 8.0 0.00 0.00 0.00 60 1014.8
20200531143023 68 205 0.0 5.0 0.00 0.00 0.00 62 1014.9
20200531142520 68 80 1.0 6.0 0.00 0.00 0.00 62 1014.9
20200531141023 68 83 3.0 10.0 0.00 0.00 0.00 62 1014.8
20200531140520 68 59 2.0 7.0 0.00 0.00 0.00 63 1014.8
20200531135023 67 81 3.0 6.0 0.00 0.00 0.00 65 1014.8
20200531134520 67 87 5.0 12.0 0.00 0.00 0.00 65 1014.8
20200531134024 67 66 3.0 7.0 0.00 0.00 0.00 65 1014.9
20200531133023 67 39 2.0 7.0 0.00 0.00 0.00 66 1015.0
20200531132520 66 43 3.0 8.0 0.00 0.00 0.00 67 1015.0
20200531132023 66 36 3.0 8.0 0.00 0.00 0.00 66 1014.9
20200531131520 67 43 3.0 8.0 0.00 0.00 0.00 65 1015.0
20200531131023 67 26 2.0 8.0 0.00 0.00 0.00 63 1015.1
20200531130521 67 40 3.0 8.0 0.00 0.00 0.00 59 1015.1
20200531130020 68 5 3.0 5.0 0.00 0.00 0.00 58 1015.2
20200531125024 70 54 3.0 8.0 0.00 0.00 0.00 54 1014.9
20200531124023 71 191 5.0 12.0 0.00 0.00 0.00 54 1014.7
20200531123521 71 246 5.0 9.0 0.00 0.00 0.00 55 1014.7
20200531123023 71 190 9.0 16.0 0.00 0.00 0.00 54 1014.8
20200531122520 70 238 4.0 12.0 0.00 0.00 0.00 56 1014.8
20200531122024 70 238 7.0 12.0 0.00 0.00 0.00 58 1014.9
20200531121521 69 229 6.0 14.0 0.00 0.00 0.00 59 1015.0
20200531120021 71 187 8.0 14.0 0.00 0.00 0.00 56 1015.1
20200531115520 71 272 9.0 13.0 0.00 0.00 0.00 53 1015.2
20200531112521 71 277 9.0 15.0 0.00 0.00 0.00 45 1015.4
20200531112023 71 323 3.0 9.0 0.00 0.00 0.00 44 1015.3
20200531111520 70 249 7.0 13.0 0.00 0.00 0.00 45 1015.3
20200531111024 70 316 3.0 10.0 0.00 0.00 0.00 45 1015.4
20200531105520 70 314 7.0 12.0 0.00 0.00 0.00 45 1015.4
20200531105023 70 219 5.0 12.0 0.00 0.00 0.00 44 1015.4
20200531104024 71 286 3.0 7.0 0.00 0.00 0.00 43 1015.4
20200531103521 71 304 2.0 6.0 0.00 0.00 0.00 43 1015.4
20200531103024 71 290 4.0 10.0 0.00 0.00 0.00 43 1015.5
20200531102520 71 315 6.0 12.0 0.00 0.00 0.00 43 1015.4
20200531102023 71 275 5.0 10.0 0.00 0.00 0.00 43 1015.4
20200531101521 71 250 5.0 12.0 0.00 0.00 0.00 44 1015.4
20200531101023 70 291 5.0 12.0 0.00 0.00 0.00 44 1015.4
20200531095520 70 315 5.0 10.0 0.00 0.00 0.00 45 1015.5
20200531095023 70 317 3.0 12.0 0.00 0.00 0.00 44 1015.5
20200531094520 70 289 5.0 13.0 0.00 0.00 0.00 44 1015.6
20200531094023 70 271 3.0 12.0 0.00 0.00 0.00 44 1015.5
20200531093521 70 256 4.0 12.0 0.00 0.00 0.00 46 1015.6
20200531093023 70 315 4.0 9.0 0.00 0.00 0.00 46 1015.5
20200531092520 69 265 5.0 12.0 0.00 0.00 0.00 48 1015.5
20200531092023 69 241 1.0 6.0 0.00 0.00 0.00 53 1015.5
20200531091520 69 173 0.0 0.0 0.00 0.00 0.00 55 1015.5
20200531091023 69 271 1.0 6.0 0.00 0.00 0.00 54 1015.6
20200531090520 69 248 1.0 5.0 0.00 0.00 0.00 54 1015.6
20200531085520 69 277 5.0 9.0 0.00 0.00 0.00 54 1015.6
20200531085022 69 132 1.0 3.0 0.00 0.00 0.00 54 1015.6
20200531084520 68 200 1.0 3.0 0.00 0.00 0.00 56 1015.6
20200531084023 68 229 1.0 3.0 0.00 0.00 0.00 57 1015.6
20200531083520 68 312 2.0 5.0 0.00 0.00 0.00 58 1015.6
20200531083023 68 302 3.0 7.0 0.00 0.00 0.00 58 1015.6
20200531082023 68 251 4.0 6.0 0.00 0.00 0.00 56 1015.6
20200531081521 68 294 2.0 6.0 0.00 0.00 0.00 57 1015.7
20200531081022 68 88 2.0 6.0 0.00 0.00 0.00 56 1015.7
20200531080020 68 58 2.0 5.0 0.00 0.00 0.00 58 1015.8
20200531075520 68 48 2.0 5.0 0.00 0.00 0.00 59 1015.8
20200531075023 68 38 1.0 3.0 0.00 0.00 0.00 59 1015.8
20200531074023 67 79 1.0 3.0 0.00 0.00 0.00 61 1015.9
20200531073520 67 319 1.0 3.0 0.00 0.00 0.00 62 1015.8
20200531073023 66 0 0.0 1.0 0.00 0.00 0.00 63 1015.8
20200531072023 65 238 1.0 3.0 0.00 0.00 0.00 66 1015.8
20200531071023 65 225 2.0 5.0 0.00 0.00 0.00 65 1015.9
20200531070520 65 326 0.0 3.0 0.00 0.00 0.00 66 1015.9
20200531070020 65 139 0.0 1.0 0.00 0.00 0.00 67 1015.9
20200531063022 62 264 0.0 1.0 0.00 0.00 0.00 80 1015.7
20200531062023 61 265 1.0 3.0 0.00 0.00 0.00 81 1015.9
20200531061520 61 271 0.0 2.0 0.00 0.00 0.00 81 1015.8
20200531060520 60 248 2.0 3.0 0.00 0.00 0.00 83 1015.6
20200531060020 60 234 1.0 3.0 0.00 0.00 0.00 85 1015.6
20200531055519 59 243 2.0 3.0 0.00 0.00 0.00 85 1015.6
20200531055023 59 256 2.0 3.0 0.00 0.00 0.00 86 1015.5
20200531054519 59 253 1.0 3.0 0.00 0.00 0.00 86 1015.5